Tracking 25693 objects as of 1-Jul-2022
HD Live streaming from Space Station
objects crossing your sky now

TEVEL-4

Track TEVEL-4 now!
10-day predictions
TEVEL-4 is classified as:


NORAD ID: 51063
Int'l Code: 2022-002CH
Perigee: 522.8 km
Apogee: 536.5 km
Inclination: 97.5 °
Period: 95.1 minutes
Semi major axis: 6900 km
RCS: Unknown
Launch date: January 13, 2022
Source: (TBD)
Launch site: AIR FORCE EASTERN TEST RANGE (AFETR)

Uplink (MHz): 145.970
Downlink (MHz): 436.400
Beacon (MHz):
Mode: 9600bps BPSK FM
Call sign: T4ATA
Status: Active

aabbcc
Your satellite tracking list
Your tracking list is empty




NASA's NSSDC Master Catalog

Two Line Element Set (TLE):
1 51063U 22002CH  22182.45256079  .00004899  00000-0  26932-3 0  9999
2 51063  97.4825 249.2068 0009921  25.7547  97.5027 15.14506343 25531
Source of the keplerian elements: AFSPC